Accueil
METAR-TAF:

METAR-TAF

Aéroports :

Laupheim, Allemagne

latitude: 48-13N, longitude: 009-55E, altitude: 538 m

Observation

Le bulletin a été fait il y a 13 minutes, à 05:20 UTC
Vent 3 kt de nord-est
Température 12°C
Humidité 82%
Pression 1022 hPa
Visibilité 10 km ou plus
Quelques nuages à une hauteur de 4500 ft
Nuages fragmentés à une hauteur de 30000 ft

METAR: ETHL 240520Z 05003KT 9999 FEW045 BKN300 12/09 Q1022 BLU+

Heure: 07:33 (05:33 UTC)


TAF: absent

Observations et prévisions météorologiques de plus de 4000 aéroports (messages METAR et TAF).

Les stations disponibles sont représentées par des disques jaunes et rouges sur la carte.

Passer la souris dessus pour voir le nom de la station.

Cliquer dessus pour voir les observations et prévisions météorologiques.

Pour changer de carte: cliquez sur les boutons verts avec une croix noire pour zoomer, sur le bouton vert avec un tiret pour effectuer un zoom arrière, ou sur les flèches vertes pour les cartes adjacentes.


METAR-TAF: